Andrej Modric

Olheiro-Chefe - Sibenik
21 Nov 2027
Domingo
Processo

Personalidade

Adaptabilidade (12) Ambição (3) Controvérsia (1) Lealdade (2) Pressão (20) Profissionalismo (6) Espírito Esportivo (11) Temperamento (10)

Perfil

Estilo de Treinamento Democrático
Licença Nacional B
Determinação 7
Gestão de Pessoas 9
Motivação 7
Disciplina 9
Satisfação no Trabalho
100%
Fadiga
0%
Função Olheiro-Chefe
Salário 27.8K p/s
Contrato 14.03.2028

Desempenho

Comportamento Bom
Eficácia do Treinamento
41%
Desenvolvimento do Jogador
35%
Prevenção de Lesões
25%
Implementação Tática
35%

Monitorando agora

63
Jogador Clube Status Habilidade Confiança Observado Última observação Último voto
Fernando Rodríguez Almirante Brown Ativo 103 / 114 40% 1 30.08.2027 -
Matías Machado Racing Ativo 103 / 126 40% 1 30.08.2027 -
Junior Osorio Llaneros Ativo 100 / 79 40% 1 29.08.2027 -
Valentín Serrano Arsenal Ativo 91 / 106 40% 1 29.08.2027 -
Anthony Uzodimma Cotonsport Garoua Ativo 113 / 98 40% 1 28.08.2027 -
Agustín Ojeda Chaco For Ever Ativo 108 / 104 40% 1 28.08.2027 -
Raphael Ayagwa Liberty Professionals Ativo 85 / 98 40% 2 26.08.2027 -
Luis Mina America de Cali Ativo 108 / 123 40% 1 26.08.2027 -
Luis Olivera Defensores Unidos Ativo 104 / 128 40% 2 24.08.2027 -
Innocent Arigu Katsina United Ativo 75 / 107 40% 1 24.08.2027 -
Franco Camargo Gimnasia y Esgrima Ativo 111 / 118 40% 1 23.08.2027 -
Ubong Williams Bayelsa United Ativo 103 / 90 40% 1 23.08.2027 -
Saturday Erimuya Bendel Insurance Ativo 86 / 99 40% 1 22.08.2027 -
Agustín Aleo Central Norte Ativo 128 / 101 40% 1 22.08.2027 -
Mathías Silvera Chaco For Ever Ativo 120 / 103 40% 2 17.08.2027 -
Bruno Palazzo Nueva Chicago Ativo 130 / 99 40% 1 17.08.2027 -
Deyman Cortés Imotski Ativo 79 / 85 48% 1 16.08.2027 -
Mattia Capoferri Pergolettese Ativo 112 / 104 40% 2 15.08.2027 -
Lorenzo Monti Temperley Ativo 111 / 89 40% 1 15.08.2027 -
Chigozie Ani Niger Tornadoes Ativo 109 / 102 40% 1 14.08.2027 -
Emeka Onyema Enyimba Ativo 101 / 94 40% 2 13.08.2027 -
Nicolás Mosca Atlanta Ativo 110 / 108 40% 1 13.08.2027 -
Saro Loveday Bayelsa United Ativo 81 / 88 40% 2 12.08.2027 -
Javier Márquez Estudiantes de Merida Ativo 92 / 103 40% 1 12.08.2027 -
Matías Benítez San Miguel Ativo 98 / 121 40% 2 11.08.2027 -
Erik de los Santos Racing Ativo 109 / 99 40% 1 11.08.2027 -
Juan Pablo De la Reta Maipú Ativo 115 / 108 40% 1 08.08.2027 -
Mahmood Aliyu Wikki Tourists Ativo 94 / 79 40% 1 08.08.2027 -
Emmanuel Utaka Nasarawa United Ativo 85 / 87 40% 1 06.08.2027 -
Rio Shipston Sheffield Wednesday Ativo 86 / 122 40% 1 06.08.2027 -
Gonçalo Braga Lusitânia Lourosa Ativo 112 / 96 40% 1 02.08.2027 -
Lucas Monzón Alvarado Ativo 120 / 125 40% 1 01.08.2027 -
Fernando Miranda Colegiales Ativo 126 / 89 40% 1 31.07.2027 -
Luca Woodhouse Exeter City Ativo 67 / 109 40% 1 30.07.2027 -
Juan Salas Patronato Ativo 123 / 98 40% 1 26.07.2027 -
Santiago Gauna Almirante Brown Ativo 131 / 112 40% 1 26.07.2027 -
Liam Coyle Accrington Stanley Ativo 102 / 79 40% 1 25.07.2027 -
Iván Cabrera Arsenal Ativo 104 / 90 40% 1 21.07.2027 -
Luciano Paredes Maipú Ativo 104 / 110 40% 1 21.07.2027 -
Omar Hassan Masr El Makasa Ativo 100 / 91 40% 1 20.07.2027 -
Julián Cosi Madryn Ativo 126 / 104 40% 1 19.07.2027 -
Brandon Khela Peterborough United Ativo 118 / 88 40% 1 19.07.2027 -
Filippo Pirola Alcione Milano Ativo 121 / 109 40% 1 16.07.2027 -
Gonzalo Mottes Chacarita Juniors Ativo 105 / 124 40% 1 15.07.2027 -
Pavel Maslov Chaika Ativo 111 / 97 40% 1 14.07.2027 -
George Nurse Cheltenham Town Ativo 92 / 103 40% 1 14.07.2027 -
Gilbani Samba Asante Kotoko Ativo 117 / 122 40% 1 13.07.2027 -
Luca Munaretti Virtus Verona Ativo 98 / 97 40% 1 13.07.2027 -
Charlie Finney Crewe Alexandra Ativo 83 / 105 40% 1 12.07.2027 -
Bojan Roganović Torpedo Moscow Ativo 120 / 99 40% 1 20.06.2027 -
Alfie Chang Walsall Ativo 111 / 92 40% 1 19.06.2027 -
Enrico Celeghin Trapani Ativo 91 / 123 40% 1 15.06.2027 -
Francesco Benassai Trento Ativo 85 / 121 40% 1 15.06.2027 -
Anton Kabuan Rudes Ativo 71 / 81 48% 1 01.06.2027 -
Filip Krušelj Slaven Belupo Ativo 100 / 122 40% 1 10.08.2026 -
Novak Tepšić NK Varazdin Ativo 117 / 116 40% 1 10.08.2026 -
Mateo Seoane Gimnasia La Plata Ativo 113 / 121 40% 1 05.08.2026 -
Isaac Twum Ashanti Gold Ativo 84 / 101 40% 1 05.08.2026 -
Maximiliano Puig Barracas Central Ativo 109 / 88 40% 1 03.08.2026 -
Douglas Jardel Tacuarembo Ativo 93 / 89 40% 1 02.08.2026 -
Diego Valencia Universidad Catolica Ativo 89 / 114 40% 1 02.08.2026 -
Alexis Domínguez Chacarita Juniors Ativo 118 / 112 40% 1 01.08.2026 -
Misael Sosa Godoy Cruz Ativo 112 / 122 40% 1 01.08.2026 -